Вернуться в каталог

STARLINK-1954

АктивенСвязьVLEO
NORAD 47555·PAYLOAD·🇺🇸 United States

Запущен Feb 4, 2021 с Cape Canaveral Space Force Station

Loading…

Ближайшие Пролёты (ближайшие 24 часа)

TLE

СвежийSource: CelesTrak SupGP

Эпоха: Sep 15, 2026, 01:47 UTC

1 47555C 21009H   26258.07479167  .00037764  00000+0  65912-3 0  2582
2 47555  53.0461 194.1703 0004115  84.2325 306.3839 15.50061753    13

Отслеживайте STARLINK-1954 в реальном времени с AllMySat

Download on the App Store